This is the latest recevied weather packets stored in our database for station/object W0WC. If no packets are shown the sender has not sent any weather packets the latest 10 day(s).
| Time | Temp. | Humidity | Pressure | Rain* | Wind** | Luminosity | Snow |
|---|---|---|---|---|---|---|---|
| 1777733974 | 13.33° C | 47% | 1022.1 hPa | 0 mm | - | 494 W/m² | - |
| 1777733671 | 13.89° C | 49% | 1022.2 hPa | 0 mm | - | 478 W/m² | - |
| 1777733367 | 13.33° C | 50% | 1022.2 hPa | 0 mm | - | 462 W/m² | - |
| 1777733064 | 12.78° C | 52% | 1022.1 hPa | 0 mm | - | 447 W/m² | - |
| 1777732760 | 12.78° C | 55% | 1022.2 hPa | 0 mm | - | 432 W/m² | - |
| 1777732457 | 12.78° C | 53% | 1022.3 hPa | 0 mm | - | 416 W/m² | - |
| 1777732155 | 12.78° C | 58% | 1022.1 hPa | 0 mm | - | 400 W/m² | - |
| 1777731852 | 12.22° C | 61% | 1022.1 hPa | 0 mm | - | 385 W/m² | - |
| 1777731548 | 12.22° C | 58% | 1022.2 hPa | 0 mm | - | 367 W/m² | - |
| 1777731246 | 11.67° C | 61% | 1022.3 hPa | 0 mm | - | 351 W/m² | - |
| 1777730944 | 11.67° C | 61% | 1022.2 hPa | 0 mm | - | 334 W/m² | - |
| 1777730642 | 11.67° C | 62% | 1022 hPa | 0 mm | - | 318 W/m² | - |
| 1777730338 | 11.67° C | 63% | 1022.1 hPa | 0 mm | - | 305 W/m² | - |
| 1777730034 | 11.11° C | 65% | 1022.1 hPa | 0 mm | - | 289 W/m² | - |
| 1777729730 | 10.56° C | 66% | 1022.1 hPa | 0 mm | - | 278 W/m² | - |
| 1777729428 | 10.56° C | 67% | 1021.8 hPa | 0 mm | - | 256 W/m² | - |
| 1777729124 | 10° C | 67% | 1021.8 hPa | 0 mm | - | 240 W/m² | - |
| 1777728820 | 10° C | 68% | 1021.7 hPa | 0 mm | - | 228 W/m² | - |
| 1777728518 | 9.44° C | 69% | 1022 hPa | 0 mm | - | 212 W/m² | - |
| 1777728215 | 9.44° C | 72% | 1021.9 hPa | 0 mm | - | 198 W/m² | - |
| 1777727912 | 9.44° C | 72% | 1021.7 hPa | 0 mm | - | 185 W/m² | - |
| 1777727609 | 8.89° C | 74% | 1021.7 hPa | 0 mm | - | 169 W/m² | - |
| 1777727306 | 8.89° C | 76% | 1021.6 hPa | 0 mm | - | 100 W/m² | - |
| 1777727003 | 8.33° C | 78% | 1021.8 hPa | 0 mm | - | 149 W/m² | - |
| 1777726700 | 7.78° C | 80% | 1021.6 hPa | 0 mm | - | 131 W/m² | - |
* Rain latest hour (hover to see other rain measurements)
** Current wind speed in m/s (hover to see current wind gust speed)